This is the latest recevied weather packets stored in our database for station/object KD4WXI. If no packets are shown the sender has not sent any weather packets the latest 10 day(s).
| Time | Temp. | Humidity | Pressure | Rain* | Wind** | Luminosity | Snow |
|---|---|---|---|---|---|---|---|
| 1777913792 | 25° C | 35% | 1016.7 hPa | 0 mm | - | 758 W/m² | - |
| 1777913488 | 25° C | 35% | 1016.7 hPa | 0 mm | - | 748 W/m² | - |
| 1777913185 | 24.44° C | 35% | 1016.8 hPa | 0 mm | - | 757 W/m² | - |
| 1777912881 | 24.44° C | 35% | 1016.9 hPa | 0 mm | - | 756 W/m² | - |
| 1777912578 | 23.89° C | 34% | 1016.9 hPa | 0 mm | - | 751 W/m² | - |
| 1777912275 | 23.89° C | 38% | 1016.7 hPa | 0 mm | - | 745 W/m² | - |
| 1777911970 | 23.33° C | 34% | 1017 hPa | 0 mm | - | 742 W/m² | - |
| 1777911667 | 23.89° C | 34% | 1017.2 hPa | 0 mm | - | 732 W/m² | - |
| 1777911363 | 22.78° C | 34% | 1017.1 hPa | 0 mm | - | 736 W/m² | - |
| 1777911061 | 23.33° C | 36% | 1017.4 hPa | 0 mm | - | 730 W/m² | - |
| 1777910758 | 23.89° C | 35% | 1017.6 hPa | 0 mm | - | 720 W/m² | - |
| 1777910455 | 23.33° C | 42% | 1017.7 hPa | 0 mm | - | 715 W/m² | - |
| 1777910151 | 23.33° C | 37% | 1017.7 hPa | 0 mm | - | 711 W/m² | - |
| 1777909849 | 22.78° C | 41% | 1017.9 hPa | 0 mm | - | 703 W/m² | - |
| 1777909545 | 22.78° C | 38% | 1018.2 hPa | 0 mm | - | 695 W/m² | - |
| 1777909242 | 22.78° C | 37% | 1018.1 hPa | 0 mm | - | 686 W/m² | - |
| 1777908941 | 22.78° C | 40% | 1018.1 hPa | 0 mm | - | 681 W/m² | - |
| 1777908639 | 23.33° C | 39% | 1018.2 hPa | 0 mm | - | 672 W/m² | - |
| 1777908335 | 22.78° C | 39% | 1018.1 hPa | 0 mm | - | 663 W/m² | - |
| 1777908032 | 22.78° C | 39% | 1018.1 hPa | 0 mm | - | 653 W/m² | - |
| 1777907728 | 21.67° C | 42% | 1018 hPa | 0 mm | - | 643 W/m² | - |
| 1777907427 | 21.11° C | 45% | 1018 hPa | 0 mm | - | 631 W/m² | - |
| 1777907125 | 21.67° C | 43% | 1017.9 hPa | 0 mm | - | 622 W/m² | - |
| 1777906823 | 21.11° C | 41% | 1018.2 hPa | 0 mm | - | 611 W/m² | - |
| 1777906520 | 21.67° C | 45% | 1018 hPa | 0 mm | - | 598 W/m² | - |
* Rain latest hour (hover to see other rain measurements)
** Current wind speed in m/s (hover to see current wind gust speed)